This is the latest recevied weather packets stored in our database for station/object KQ7A. If no packets are shown the sender has not sent any weather packets the latest 10 day(s).
| Time | Temp. | Humidity | Pressure | Rain* | Wind** | Luminosity | Snow |
|---|---|---|---|---|---|---|---|
| 1777891178 | 7.78° C | 87% | 1012.8 hPa | 0 mm | - | 0 W/m² | - |
| 1777890872 | 7.78° C | 88% | 1012.8 hPa | 0 mm | - | 0 W/m² | - |
| 1777890569 | 7.78° C | 87% | 1012.5 hPa | 0 mm | - | 0 W/m² | - |
| 1777889961 | 7.78° C | 85% | 1012.8 hPa | 0 mm | - | 0 W/m² | - |
| 1777889659 | 7.78° C | 84% | 1012.5 hPa | 0 mm | - | 0 W/m² | - |
| 1777889355 | 8.33° C | 83% | 1012.6 hPa | 0 mm | - | 0 W/m² | - |
| 1777889053 | 8.33° C | 82% | 1012.8 hPa | 0 mm | - | 0 W/m² | - |
| 1777888750 | 8.89° C | 81% | 1012.5 hPa | 0 mm | - | 0 W/m² | - |
| 1777888447 | 8.89° C | 79% | 1012.9 hPa | 0 mm | - | 0 W/m² | - |
| 1777887537 | 8.89° C | 78% | 1012.9 hPa | 0 mm | - | 0 W/m² | - |
| 1777887233 | 8.89° C | 78% | 1013 hPa | 0 mm | - | 0 W/m² | - |
| 1777886928 | 8.89° C | 78% | 1012.9 hPa | 0 mm | - | 0 W/m² | - |
| 1777886624 | 8.89° C | 78% | 1012.9 hPa | 0 mm | - | 0 W/m² | - |
| 1777886322 | 8.89° C | 78% | 1012.8 hPa | 0 mm | - | 0 W/m² | - |
| 1777886019 | 8.33° C | 79% | 1012.8 hPa | 0 mm | - | 0 W/m² | - |
| 1777885718 | 8.33° C | 79% | 1012.6 hPa | 0 mm | - | 0 W/m² | - |
| 1777885416 | 8.33° C | 83% | 1012.8 hPa | 0 mm | - | 0 W/m² | - |
| 1777885114 | 8.89° C | 80% | 1013 hPa | 0 mm | - | 0 W/m² | - |
| 1777884811 | 9.44° C | 74% | 1013 hPa | 0 mm | - | 0 W/m² | - |
| 1777884507 | 9.44° C | 76% | 1013 hPa | 0 mm | - | 0 W/m² | - |
| 1777883900 | 10° C | 75% | 1013.2 hPa | 0 mm | - | 0 W/m² | - |
| 1777883597 | 8.89° C | 76% | 1013.1 hPa | 0 mm | - | 0 W/m² | - |
| 1777883293 | 8.89° C | 78% | 1012.8 hPa | 0 mm | - | 0 W/m² | - |
| 1777882990 | 8.33° C | 79% | 1012.6 hPa | 0 mm | - | 0 W/m² | - |
| 1777882686 | 8.33° C | 82% | 1013 hPa | 0 mm | - | 0 W/m² | - |
* Rain latest hour (hover to see other rain measurements)
** Current wind speed in m/s (hover to see current wind gust speed)